Regional Weather Roundup
Issued by NWS Cleveland, OH

Home | Current Version | Previous Version | Text Only | Print | Product List | Glossary Off
Versions: 1 2 3 4 5 6 7 8 9 10 11 12 13 14 15 16 17 18 19 20 21 22 23 24 25 26 27 28 29 30 31 32 33 34 35 36 37 38 39 40 41 42 43 44 45 46 47 48 49 50

000
ASUS41 KCLE 220012
RWRCLE
OHIO REGIONAL WEATHER ROUNDUP
NATIONAL WEATHER SERVICE WILMINGTON, OH
800 PM EDT MON MAY 21 2018

NOTE: "FAIR" INDICATES FEW OR NO CLOUDS BELOW 12,000 FEET WITH NO
SIGNIFICANT WEATHER AND/OR OBSTRUCTIONS TO VISIBILITY.

OHZ001>008-015>018-024>027-034-035-043-044-220100-
   NORTHWEST OHIO

CITY           SKY/WX    TMP DP  RH WIND       PRES   REMARKS
DEFIANCE       CLOUDY    59  56  89 E10       30.06R
FINDLAY        MOCLDY    62  57  83 E9        30.05R
TOLEDO EXPRESS CLOUDY    58  53  84 E12       30.06F
TOLEDO EXEC    CLOUDY    58  51  78 E7        30.08F
LIMA           LGT RAIN  64  63  96 NE9       30.04S
$$

OHZ009>014-019>023-028>033-038-089-220100-
   NORTHEAST OHIO

CITY           SKY/WX    TMP DP  RH WIND       PRES   REMARKS
CLE-HOPKINS    LGT RAIN  63  53  70 NE8       30.08S
CLE-LAKEFRONT  MOCLDY    56  50  80 NE13      30.05F
CUY CO. ARPT   CLOUDY    68  57  68 NE8       30.08F
LORAIN-ELYRIA  LGT RAIN  58  48  69 NE14      30.08S
ASHTABULA      CLOUDY    64  49  57 NE6       30.10R
AKRON-CANTON   MOCLDY    77  59  53 E6        30.06S
WOOSTER        MOCLDY    74  63  68 SE3       30.06S
MANSFIELD      FAIR      74  63  68 NE6       30.07R
YOUNGSTOWN     CLOUDY    75  58  55 NE5       30.08R
$$

OHZ042-051>053-060>062-070>072-077>081-220100-
  SOUTHWEST OHIO

CITY           SKY/WX    TMP DP  RH WIND       PRES   REMARKS
CINC-COVINGTON CLOUDY    80  66  62 W5        30.01S
CINC-LUNKEN    FAIR      80  71  74 CALM      30.00S
HAMILTON       FAIR      81  67  62 SW5       30.01S
DAYTON         TSTM      68  66  93 NW18G28   30.04R
WRIGHT-PAT AFB MOCLDY    79  66  65 NW18G29   30.02R
DAYTON GENERAL FAIR      83  62  49 W6        30.01R
WILMINGTON     FAIR      78  68  71 SW6       30.02R
$$

OHZ036-037-039>041-045>050-054>059-063>069-073>076-082>088-220100-
  CENTRAL AND SOUTHEAST OHIO

CITY           SKY/WX    TMP DP  RH WIND       PRES   REMARKS
COLUMBUS       CLOUDY    79  65  62 SE8       30.02S
OSU AIRPORT    FAIR      78  67  68 SE9       30.02S
BOLTON FIELD   NOT AVBL
RICKENBACK AFB FAIR      77  66  67 MISG      30.02R
NEWARK         FAIR      78  67  68 SE5       30.03S
MARION         TSTM      66  64  93 N13       30.07R FOG
LANCASTER      FAIR      76  66  71 SE10      30.04R
ZANESVILLE     FAIR      76  64  66 SE8       30.04F
NEW PHILLY     FAIR      77  63  61 E3        30.05S
$$



USA.gov is the U.S. government's official web portal to all federal, state and local government web resources and services.